{"data":{"norad_id":57416,"epoch":"2026-05-25T03:41:22.437024Z","epoch_age_seconds":55037,"freshness":"FRESH","line1":"1 57416U 23102N   26145.15373191  .00000440  00000+0  25528-4 0  9992","line2":"2 57416  43.0019 176.7872 0001382 264.3235  95.7459 15.27578773157935","mean_motion":15.27578773,"eccentricity":0.0001382,"inclination_deg":43.0019,"raan_deg":176.7872,"arg_perigee_deg":264.3235,"mean_anomaly_deg":95.7459,"bstar":2.5528e-5,"rev_number":15793,"period_min":94.266824431711,"perigee_km":482.10455369529,"apogee_km":484.00098654776,"semimajor_km":6861.1897701215,"source":"CELESTRAK","updated_at":"2026-05-25T13:38:18.318079Z"}}